Covington, KY

2:18 PM EDT on May 25, 2017 (GMT -0400)
Cincinnati-Northern KY International

Weather History for KCVG - September, 2013

Change the Weather History Date:

Friday, September 20, 2013

  Actual Average Record
Temperature  
Mean Temperature 77 °F 66 °F  
Max Temperature 86 °F 77 °F 95 °F (1895)
Min Temperature 67 °F 55 °F 39 °F (1956)
Degree Days  
Heating Degree Days 0 2  
Month to date heating degree days 10 19  
Since 1 July heating degree days 14 19  
Cooling Degree Days 12 3  
Month to date cooling degree days 136 113  
Year to date cooling degree days 1112 1081  
Growing Degree Days 27 (Base 50)    
Moisture  
Dew Point 69 °F    
Average Humidity 81    
Maximum Humidity 100    
Minimum Humidity 61    
Precipitation  
Precipitation 2.33 in 0.08 in 2.33 in (2013)
Month to date precipitation 2.93 1.73  
Year to date precipitation 35.98 31.52  
Snow  
Snow 0.00 in 0.00 in - ()
Month to date snowfall 0.0 0.0  
Since 1 July snowfall 0.0 0.0  
Since 1 September snowfall 0.0 0.0  
Snow Depth 0.00 in    
Sea Level Pressure  
Sea Level Pressure 29.89 in    
Wind  
Wind Speed 8 mph (SW)    
Max Wind Speed 26 mph    
Max Gust Speed 37 mph    
Visibility 5 miles    
Events Fog , Rain    
T = Trace of Precipitation, MM = Missing Value Source: NWS Daily Summary

Daily Weather History Graph

Daily Weather History Graph

Search for Another Location

Airport or City:

Trip Planner

Search our weather history database for the weather conditions in past years. The results will help you decide how hot, cold, wet, or windy it might be!

Date:

Astronomy

Sep. 20, 2013 Rise Set
Actual Time 7:24 AM EDT 7:38 PM EDT
Civil Twilight 6:58 AM EDT 8:05 PM EDT
Nautical Twilight 6:26 AM EDT 8:36 PM EDT
Astronomical Twilight 5:54 AM EDT 9:08 PM EDT
Moon 8:12 PM EDT (9/20) 8:37 AM EDT (9/20)
Length of Visible Light 13h 07m
Length of Day
12h 13m
Full, 98% of the Moon is Illuminated
Sep 20
Full
Sep 26
Last Quarter
Oct 4
New
Oct 11
First Quarter
Oct 18
Full

Hourly Weather History & Observations

Time (EDT) Temp. Heat Index Dew Point Humidity Pressure Visibility Wind Dir Wind Speed Gust Speed Precip Events Conditions
12:52 AM 69.1 °F - 68.0 °F 96% 29.99 in 10.0 mi South 8.1 mph - N/A   Scattered Clouds
1:52 AM 69.1 °F - 68.0 °F 96% 29.99 in 6.0 mi South 5.8 mph - N/A   Scattered Clouds
2:52 AM 69.1 °F - 68.0 °F 96% 29.99 in 6.0 mi South 5.8 mph - N/A   Scattered Clouds
3:52 AM 68.0 °F - 68.0 °F 100% 29.96 in 8.0 mi South 6.9 mph - N/A   Clear
4:52 AM 69.1 °F - 68.0 °F 96% 29.96 in 6.0 mi South 6.9 mph - N/A   Clear
5:52 AM 68.0 °F - 66.9 °F 96% 29.96 in 8.0 mi SSW 6.9 mph - N/A   Clear
6:52 AM 68.0 °F - 66.9 °F 96% 29.95 in 6.0 mi South 8.1 mph - N/A   Clear
7:52 AM 68.0 °F - 66.9 °F 96% 29.96 in 7.0 mi SSW 6.9 mph - N/A   Scattered Clouds
8:52 AM 70.0 °F - 66.9 °F 90% 29.96 in 8.0 mi SSW 9.2 mph - N/A   Scattered Clouds
9:52 AM 73.0 °F - 68.0 °F 84% 29.96 in 9.0 mi SSW 8.1 mph - N/A   Mostly Cloudy
10:52 AM 75.0 °F - 68.0 °F 79% 29.96 in 10.0 mi SW 10.4 mph - N/A   Mostly Cloudy
11:52 AM 79.0 °F - 69.1 °F 72% 29.94 in 10.0 mi SW 8.1 mph - N/A   Mostly Cloudy
12:52 PM 82.0 °F 84.9 °F 68.0 °F 62% 29.91 in 10.0 mi SSW 10.4 mph 18.4 mph N/A   Scattered Clouds
1:52 PM 82.9 °F 85.8 °F 68.0 °F 60% 29.88 in 10.0 mi SW 13.8 mph 18.4 mph N/A   Scattered Clouds
2:52 PM 84.0 °F 87.8 °F 69.1 °F 61% 29.85 in 10.0 mi SSW 11.5 mph 18.4 mph N/A   Scattered Clouds
3:52 PM 82.9 °F 85.8 °F 68.0 °F 60% 29.82 in 10.0 mi South 12.7 mph - N/A   Mostly Cloudy
4:52 PM 79.0 °F - 70.0 °F 74% 29.81 in 6.0 mi West 11.5 mph - 0.01 in Rain Light Rain
5:20 PM 73.4 °F - 69.8 °F 88% 29.88 in 0.8 mi SSW 26.5 mph 36.8 mph 0.01 in Rain Light Rain
5:23 PM 71.6 °F - 69.8 °F 94% 29.88 in 0.5 mi South 20.7 mph 36.8 mph 0.18 in Fog , Rain Heavy Rain
5:32 PM 71.6 °F - 69.8 °F 94% 29.86 in 2.5 mi WSW 8.1 mph - 0.59 in Rain Heavy Rain
5:52 PM 70.0 °F - 69.1 °F 97% 29.83 in 3.0 mi West 6.9 mph - 0.61 in Rain Light Rain
6:24 PM 69.8 °F - 69.8 °F 100% 29.86 in 1.2 mi Calm Calm - 0.04 in Rain Heavy Rain
6:40 PM 69.8 °F - 69.8 °F 100% 29.86 in 3.0 mi WSW 5.8 mph - 0.08 in Rain Light Rain
6:52 PM 70.0 °F - 70.0 °F 100% 29.84 in 1.8 mi Calm Calm - 0.14 in Rain Rain
7:31 PM 71.6 °F - 71.6 °F 100% 29.87 in 0.5 mi SSW 3.5 mph - 0.16 in Rain Rain
7:44 PM 71.6 °F - 71.6 °F 100% 29.87 in 1.5 mi South 4.6 mph - 0.19 in Rain Rain
7:52 PM 71.1 °F - 71.1 °F 100% 29.84 in 1.5 mi SW 3.5 mph - 0.21 in Rain Light Rain
8:05 PM 71.6 °F - 69.8 °F 94% 29.86 in 2.5 mi WSW 3.5 mph - 0.02 in Rain Light Rain
8:27 PM 69.8 °F - 69.8 °F 100% 29.85 in 7.0 mi Calm Calm - 0.02 in   Overcast
8:52 PM 70.0 °F - 70.0 °F 100% 29.83 in 7.0 mi Calm Calm - 0.02 in   Mostly Cloudy
9:30 PM 69.8 °F - 69.8 °F 100% 29.85 in 4.0 mi South 5.8 mph - 0.00 in Rain Light Rain
9:38 PM 69.8 °F - 69.8 °F 100% 29.85 in 2.5 mi SSW 3.5 mph - 0.03 in Rain Light Rain
9:52 PM 70.0 °F - 70.0 °F 100% 29.83 in 4.0 mi West 4.6 mph - 0.04 in Rain Light Rain
9:59 PM 69.8 °F - 69.8 °F 100% 29.85 in 2.0 mi West 4.6 mph - 0.06 in Rain Heavy Rain
10:46 PM 69.8 °F - 69.8 °F 100% 29.84 in 1.0 mi West 8.1 mph - 0.47 in Rain Heavy Rain
10:52 PM 68.0 °F - 68.0 °F 100% 29.82 in 1.0 mi WNW 8.1 mph - 0.63 in Rain Heavy Rain
11:16 PM 68.0 °F - 68.0 °F 100% 29.84 in 3.0 mi Calm Calm - 0.13 in Rain Light Rain
11:19 PM 68.0 °F - 68.0 °F 100% 29.83 in 3.0 mi Calm Calm - 0.13 in Rain Light Rain
11:39 PM 68.0 °F - 68.0 °F 100% 29.83 in 3.0 mi Calm Calm - 0.15 in Rain Light Rain
11:52 PM 68.0 °F - 68.0 °F 100% 29.80 in 5.0 mi West 3.5 mph - 0.16 in Rain Light Rain